Simultaneous Nadir Overpasses (SNOs) Predictions

Prediction of SNOs between METOP-A and NOAA-19 Satellite Orbit:

Table of predicted SNOs for the next 14.0 days since TLE Epoch: 3/16/2012
Index Date (METOP-A) Time (METOP-A) METOP-A Lat,Lon Date (NOAA-19) Time (NOAA-19) NOAA-19 Lat,Lon Distance(km) Time Diff (sec)
1 03/18/2012 15:54:58 -73.38, 114.49 03/18/2012 15:53:46 -73.35, 113.33 37.26 72
2 03/18/2012 16:45:44 73.06, -78.88 03/18/2012 16:44:42 73.07, -78.80 3.04 62
3 03/18/2012 17:36:26 -73.06, 88.44 03/18/2012 17:35:46 -73.09, 88.41 2.92 40
4 03/18/2012 18:27:06 73.04,-104.27 03/18/2012 18:26:47 73.05,-104.27 1.18 19
5 03/18/2012 19:17:48 -73.04, 63.06 03/18/2012 19:17:50 -73.01, 63.04 2.80 2
6 03/18/2012 20:08:28 73.02,-129.65 03/18/2012 20:08:52 73.03,-129.74 3.17 24
7 03/18/2012 20:59:11 -72.97, 37.56 03/18/2012 20:59:55 -72.99, 37.57 2.90 44
8 03/18/2012 21:49:51 72.95,-155.15 03/18/2012 21:50:56 72.96,-155.11 1.71 65
9 03/18/2012 22:40:42 -72.49, 11.24 03/18/2012 22:41:51 -72.52, 13.04 60.51 69
10 03/28/2012 11:34:27 73.54, -0.03 03/28/2012 11:33:17 73.56, -2.00 61.88 70
11 03/28/2012 12:25:18 -73.08, 166.28 03/28/2012 12:24:09 -73.10, 166.30 1.77 69
12 03/28/2012 13:15:58 73.06, -26.43 03/28/2012 13:15:13 73.09, -26.46 3.21 45
13 03/28/2012 14:06:40 -73.06, 140.89 03/28/2012 14:06:14 -73.08, 140.82 2.92 26
14 03/28/2012 14:57:20 73.04, -51.82 03/28/2012 14:57:17 73.02, -51.82 2.33 3
15 03/28/2012 15:48:03 -72.99, 115.39 03/28/2012 15:48:18 -73.01, 115.45 2.83
